カタログに戻る

ITOS 1

TIROS M

運用中気象SSO
NORAD 4320·PAYLOAD·🇺🇸 United States

打ち上げ Jan 23, 1970 から Vandenberg Space Force Base

Loading…

次のパス (今後24時間)

TLE

最新Source: Space-Track

元期: Sep 14, 2026, 14:01 UTC

1 04320U 70008A   26257.58452103 -.00000028  00000-0  88667-4 0  9994
2 04320 101.3646 287.1197 0028488 138.0443  16.3921 12.52124368785040

AllMySatでITOS 1をリアルタイム追跡

Download on the App Store